CST,Max TemperatureF,Mean TemperatureF,Min TemperatureF,Max Dew PointF,MeanDew PointF,Min DewpointF,Max Humidity, Mean Humidity, Min Humidity, Max Sea Level PressureIn, Mean Sea Level PressureIn, Min Sea Level PressureIn, Max VisibilityMiles, Mean VisibilityMiles, Min VisibilityMiles, Max Wind SpeedMPH, Mean Wind SpeedMPH, Max Gust SpeedMPH,PrecipitationIn, CloudCover, Events, WindDirDegrees
2012-11-1,87,76,65,72,66,57,100,76,51,30.07,30.01,29.96,10,7,0,35,9,39,T,3,Fog-Rain-Thunderstorm,143
2012-11-2,90,77,64,68,64,60,100,69,38,30.03,29.98,29.93,10,9,1,22,11,28,0.00,2,Fog,143
2012-11-3,91,80,68,71,66,63,93,69,44,30.05,30.00,29.94,10,9,2,25,10,31,0.37,3,Fog-Rain-Thunderstorm,130
2012-11-4,85,76,66,70,66,63,87,73,59,30.09,30.05,30.01,10,10,10,23,5,25,T,3,Rain-Thunderstorm,97
2012-11-5,89,76,62,71,66,61,100,72,43,30.08,30.03,29.94,10,5,0,15,5,20,0.00,3,Fog,140
2012-11-6,84,71,58,69,54,40,90,56,22,30.14,30.08,29.98,10,10,10,21,9,24,0.00,1,Thunderstorm,68
2012-11-7,88,71,54,63,54,46,81,54,26,30.18,30.11,30.05,10,10,10,17,6,23,0.00,0,,164
2012-11-8,88,72,56,65,60,54,93,67,40,30.14,30.07,30.02,10,10,10,28,14,35,0.00,1,Fog,158
2012-11-9,88,77,65,64,62,59,87,64,40,30.08,30.03,29.98,10,10,10,30,15,39,0.00,2,,157
2012-11-10,88,78,67,66,63,58,81,59,37,30.02,29.96,29.90,10,10,10,32,17,38,0.00,2,,154
2012-11-11,89,81,73,69,67,65,79,63,46,30.07,29.91,29.83,10,10,10,33,18,40,T,2,,163
2012-11-12,75,66,56,68,41,31,79,52,24,30.42,30.30,30.09,10,10,10,29,18,36,T,5,Rain,21
2012-11-13,62,58,53,52,42,33,75,57,39,30.43,30.36,30.27,10,10,10,21,15,26,0.10,7,Rain,36
2012-11-14,66,61,55,41,38,32,55,42,28,30.39,30.32,30.28,10,10,10,15,8,17,0.00,8,,34
2012-11-15,69,64,59,56,45,35,68,54,39,30.29,30.24,30.18,10,10,10,17,11,20,T,8,Rain,39
2012-11-16,73,63,53,51,44,35,72,50,28,30.32,30.27,30.22,10,10,10,18,10,23,0.00,5,,54
2012-11-17,74,61,48,54,48,41,77,58,38,30.35,30.30,30.27,10,10,10,15,8,18,0.00,1,,54
2012-11-18,80,67,53,57,54,49,93,67,40,30.27,30.22,30.18,10,10,10,18,9,24,0.00,1,,83
2012-11-19,81,69,57,60,56,52,84,63,42,30.24,30.18,30.13,10,10,10,16,7,22,0.00,2,,105
2012-11-20,80,70,59,61,58,54,90,69,48,30.22,30.17,30.13,10,10,9,12,4,14,0.00,2,,111
2012-11-21,81,68,55,63,57,53,93,69,45,30.25,30.19,30.16,10,7,1,18,6,23,0.00,1,Fog,74
2012-11-22,84,69,54,62,58,51,100,70,40,30.17,30.12,30.07,10,9,1,23,11,29,0.00,3,Fog,144
2012-11-23,84,74,64,64,61,53,84,65,46,30.31,30.21,30.11,10,10,10,17,8,23,0.07,6,Rain-Thunderstorm,87
2012-11-24,73,62,50,56,41,29,73,47,20,30.37,30.27,30.18,10,10,10,23,10,29,0.00,4,,34
2012-11-25,76,63,50,65,55,39,87,70,53,30.16,30.03,29.95,10,10,10,14,6,17,0.00,3,,91
2012-11-26,87,73,58,68,63,56,97,70,43,30.10,29.99,29.93,10,8,1,25,10,31,0.04,3,Fog-Rain-Thunderstorm,163
2012-11-27,72,63,54,64,48,42,73,56,38,30.35,30.25,30.08,10,10,10,23,14,28,0.01,2,Thunderstorm,5
2012-11-28,71,60,48,55,49,42,80,67,53,30.43,30.34,30.27,10,10,10,14,9,16,0.00,1,,52
2012-11-29,78,67,56,63,59,52,86,70,54,30.25,30.18,30.11,10,10,10,13,8,17,0.00,3,,71
2012-11-30,85,75,65,68,65,62,87,71,55,30.15,30.10,30.06,10,10,10,21,9,25,T,4,Rain,129